Regional Weather Roundup
Issued by NWS Raleigh/Durham, NC

Home | Current Version | Previous Version | Text Only | Print | Product List | Glossary On
Versions: 1 2 3 4 5 6 7 8 9 10 11 12 13 14 15 16 17 18 19 20 21 22 23 24 25 26 27 28 29 30 31 32 33 34 35 36 37 38 39 40 41 42 43 44 45 46 47 48 49 50
000
ASUS42 KRAH 270310
RWRRAH
NORTH CAROLINA WEATHER ROUNDUP
NATIONAL WEATHER SERVICE RALEIGH NC
1100 PM EDT TUE MAY 26 2015

NOTE: "FAIR" INDICATES FEW OR NO CLOUDS BELOW 12,000 FEET WITH NO
SIGNIFICANT WEATHER AND/OR OBSTRUCTIONS TO VISIBILITY.

NCZ001-053-055-056-065-067-270400-
WESTERN NORTH CAROLINA

CITY           SKY/WX    TMP DP  RH WIND       PRES   REMARKS
ASHEVILLE      LGT RAIN  64  62  93 VRB3      30.28R
JEFFERSON      CLOUDY    67  60  77 SE3       30.29R
MORGANTON      RAIN      68  68  99 S3        30.30R
HICKORY        RAIN      67  64  90 SW10      30.23R FOG
RUTHERFORDTON  LGT RAIN  66  66  99 S6        30.26R
MOUNT AIRY     CLOUDY    75  66  72 SE5       30.23R
BOONE          LGT RAIN  67  64  93 SW8       30.32R
$$

NCZ021-022-025-041-071-084-088-270400-
CENTRAL NORTH CAROLINA

CITY           SKY/WX    TMP DP  RH WIND       PRES   REMARKS
CHARLOTTE      CLOUDY    69  64  84 W10       30.27R
GREENSBORO     CLOUDY    78  64  61 S12       30.21R
WINSTON-SALEM  CLOUDY    77  64  64 S5        30.22R
RALEIGH-DURHAM MOCLDY    76  69  79 S10       30.23R
FORT BRAGG     MOCLDY    75  69  79 S8        30.24S
FAYETTEVILLE   MOCLDY    75  69  81 S8        30.25R
BURLINGTON     MOCLDY    77  69  76 SE6       30.21R
LAURINBURG     CLOUDY    75  64  68 S8        30.26R
$$

NCZ011-015-027-028-043-044-047-080-103-270400-
NORTHEASTERN NORTH CAROLINA

CITY           SKY/WX    TMP DP  RH WIND       PRES   REMARKS
ROCKY MT-WILSO PTCLDY    74  69  85 S8        30.24R
GREENVILLE     CLEAR     73  70  88 S9        30.26S
WASHINGTON     PTCLDY    72  67  82 S7        30.27S
ELIZABETH CITY CLEAR     72  65  78 S10       30.27F
MANTEO         CLEAR     73  66  78 SW15      30.29S
CAPE HATTERAS  CLEAR     73  62  68 S14G21    30.30S
$$

NCZ078-087-090-091-093-098-101-270400-
SOUTHEASTERN NORTH CAROLINA

CITY           SKY/WX    TMP DP  RH WIND       PRES   REMARKS
LUMBERTON      MOCLDY    74  68  81 S6        30.26R
GOLDSBORO      CLOUDY    74  69  86 S2        30.24R
KINSTON        MOCLDY    73  68  83 S6        30.27R
KENANSVILLE    PTCLDY    72  68  86 SE5       30.27S
NEW BERN       PTCLDY    72  66  81 S6        30.29R
CHERRY POINT   PTCLDY    72  66  81 SE8       30.29S
BEAUFORT       PTCLDY    74  66  76 S12       30.29S
JACKSONVILLE   PTCLDY    74  67  78 S9        30.27R
WILMINGTON     CLOUDY    76  69  79 S9        30.28R
$$




USA.gov is the U.S. government's official web portal to all federal, state and local government web resources and services.